This is the latest recevied weather packets stored in our database for station/object JQ1YUX-13. If no packets are shown the sender has not sent any weather packets the latest 10 day(s).
| Time | Temp. | Humidity | Pressure | Rain* | Wind** | Luminosity | Snow |
|---|---|---|---|---|---|---|---|
| 1787456145 | 31.11° C | 79% | 1014.8 hPa | 0 mm | - | - | - |
| 1787455293 | 30.56° C | 79% | 1014.7 hPa | 0 mm | - | - | - |
| 1787455246 | 30.56° C | 79% | 1014.7 hPa | 0 mm | - | - | - |
| 1787454344 | 30.56° C | 81% | 1014.9 hPa | 0 mm | - | - | - |
| 1787453492 | 30.56° C | 82% | 1015.1 hPa | 0 mm | - | - | - |
| 1787453445 | 30.56° C | 82% | 1015.1 hPa | 0 mm | - | - | - |
| 1787452545 | 30° C | 83% | 1015.2 hPa | 0 mm | - | - | - |
| 1787451645 | 29.44° C | 84% | 1015.3 hPa | 0 mm | - | - | - |
| 1787450744 | 28.89° C | 85% | 1015.7 hPa | 0 mm | - | - | - |
| 1787449891 | 28.89° C | 84% | 1015.9 hPa | 0 mm | - | - | - |
| 1787449844 | 28.89° C | 84% | 1015.9 hPa | 0 mm | - | - | - |
| 1787448945 | 29.44° C | 83% | 1016 hPa | 0 mm | - | - | - |
| 1787448045 | 29.44° C | 83% | 1015.9 hPa | 0 mm | - | - | - |
| 1787447144 | 28.89° C | 83% | 1016 hPa | 0 mm | - | - | - |
| 1787446246 | 28.89° C | 85% | 1016 hPa | 0 mm | - | - | - |
| 1787445344 | 28.89° C | 86% | 1016.2 hPa | 0 mm | - | - | - |
| 1787444493 | 28.33° C | 87% | 1016.2 hPa | 0 mm | - | - | - |
| 1787444445 | 28.33° C | 87% | 1016.2 hPa | 0 mm | - | - | - |
| 1787443544 | 27.78° C | 87% | 1016.1 hPa | 0 mm | - | - | - |
| 1787442691 | 27.78° C | 88% | 1016.1 hPa | 0 mm | - | - | - |
| 1787442644 | 27.78° C | 88% | 1016.1 hPa | 0 mm | - | - | - |
| 1787441745 | 27.22° C | 89% | 1016.1 hPa | 0 mm | - | - | - |
| 1787440892 | 27.22° C | 89% | 1016.1 hPa | 0 mm | - | - | - |
| 1787440845 | 27.22° C | 89% | 1016.1 hPa | 0 mm | - | - | - |
| 1787439946 | 26.67° C | 89% | 1016.1 hPa | 0 mm | - | - | - |
* Rain latest hour (hover to see other rain measurements)
** Current wind speed in m/s (hover to see current wind gust speed)